FW8740 Weather Reports


time (UTC)temp
F
wind
direction
speed
knots
gust
knots
rain 1hr
in
rain 24hr
in
rain mn
in
humidity
%
barometer
mb
20260506102612 56 226 1.7 2.6 0.00 0.00 0.00 91 1012.9
20260506102109 55 145 0.9 2.6 0.00 0.00 0.00 91 1012.7
20260506101606 55 140 0.9 1.7 0.00 0.00 0.00 91 1012.9
20260506101103 55 134 0.9 2.6 0.00 0.00 0.00 91 1012.8
20260506100601 55 138 0.9 2.6 0.00 0.00 0.00 91 1012.5
20260506100059 55 162 0.9 2.6 0.00 0.00 0.00 91 1012.8
20260506095557 55 187 0.9 1.7 0.00 0.00 0.00 91 1012.7
20260506095053 55 126 0.0 1.7 0.00 0.00 0.00 91 1012.8
20260506094551 55 180 1.7 1.7 0.00 0.00 0.00 91 1012.8
20260506094049 55 135 0.9 1.7 0.00 0.00 0.00 91 1012.8
20260506093547 55 155 0.9 1.7 0.00 0.00 0.00 91 1012.7
20260506093044 55 158 0.0 2.6 0.00 0.00 0.00 90 1012.8
20260506092542 55 136 0.0 0.9 0.00 0.00 0.00 90 1013.0
20260506092038 55 173 0.9 1.7 0.00 0.00 0.00 90 1012.7
20260506091537 55 133 0.9 1.7 0.00 0.00 0.00 90 1012.9
20260506091034 54 134 0.0 0.9 0.00 0.00 0.00 90 1012.8
20260506090532 54 125 0.9 1.7 0.00 0.00 0.00 90 1012.7
20260506090028 54 140 0.9 1.7 0.00 0.00 0.00 90 1012.8
20260506085525 54 149 1.7 1.7 0.00 0.00 0.00 90 1012.8
20260506085021 54 126 0.0 0.9 0.00 0.00 0.00 90 1013.1
20260506084518 54 151 0.9 1.7 0.00 0.00 0.00 90 1013.3
20260506084014 54 121 0.0 0.9 0.00 0.00 0.00 90 1013.0
20260506083512 54 121 0.0 0.0 0.00 0.00 0.00 89 1012.9
20260506083009 54 119 0.0 0.0 0.00 0.00 0.00 89 1012.9
20260506082506 54 123 0.0 0.0 0.00 0.00 0.00 89 1013.1
20260506082001 54 114 0.0 0.0 0.00 0.00 0.00 89 1013.1
20260506081500 54 125 0.0 0.0 0.00 0.00 0.00 89 1013.1
20260506080957 54 126 0.0 0.9 0.00 0.00 0.00 89 1013.0
20260506080454 54 122 0.0 0.0 0.00 0.00 0.00 89 1013.3
20260506073438 55 125 0.0 0.9 0.00 0.00 0.00 88 1013.2
20260506072935 55 122 0.0 0.9 0.00 0.00 0.00 88 1013.1
20260506072432 55 116 0.0 0.9 0.00 0.00 0.00 88 1013.2
20260506071930 55 115 0.9 1.7 0.00 0.00 0.00 88 1013.2
20260506071427 55 143 0.0 0.9 0.00 0.00 0.00 88 1013.4
20260506070924 55 128 0.0 0.9 0.00 0.00 0.00 88 1013.4
20260506070421 55 126 0.9 0.9 0.00 0.00 0.00 88 1013.3
20260506062359 56 178 0.9 1.7 0.00 0.00 0.00 87 1013.3
20260506061854 56 126 0.9 1.7 0.00 0.00 0.00 87 1013.3
20260506061351 56 134 0.9 1.7 0.00 0.00 0.00 87 1013.1
20260506060849 56 140 0.9 1.7 0.00 0.00 0.00 86 1013.2
20260506060347 57 128 0.9 1.7 0.00 0.00 0.00 86 1013.3
20260506051319 58 135 0.9 1.7 0.00 0.00 0.00 84 1013.7
20260506050816 58 128 0.9 1.7 0.00 0.00 0.00 83 1013.8
20260506050314 58 144 0.0 0.9 0.00 0.00 0.00 83 1013.8
20260506044804 58 131 0.9 1.7 0.00 0.00 0.00 81 1013.7
20260506044301 59 128 0.9 1.7 0.00 0.00 0.00 81 1014.0
20260506043759 59 134 0.9 0.9 0.00 0.00 0.00 81 1013.9
20260506043256 59 122 0.0 1.7 0.00 0.00 0.00 80 1013.7
20260506042755 59 126 0.0 0.9 0.00 0.00 0.00 80 1013.9
20260506042253 59 134 0.9 0.9 0.00 0.00 0.00 79 1013.7
20260506041751 59 139 0.9 0.9 0.00 0.00 0.00 79 1013.7
20260506041248 60 145 0.9 1.7 0.00 0.00 0.00 79 1013.6
20260506040745 60 139 0.9 0.9 0.00 0.00 0.00 78 1013.6
20260506040242 60 139 0.9 1.7 0.00 0.00 0.00 78 1013.5
20260506035739 60 138 0.9 0.9 0.00 0.00 0.00 77 1013.8
20260506035236 61 148 0.9 0.9 0.00 0.00 0.00 76 1013.7
20260506034733 61 131 0.9 1.7 0.00 0.00 0.00 76 1013.6
20260506034230 62 151 0.9 1.7 0.00 0.00 0.00 75 1013.7
20260506033727 62 127 0.9 1.7 0.00 0.00 0.00 75 1013.8
20260506033224 62 135 0.9 0.9 0.00 0.00 0.00 74 1013.6
20260506032721 62 139 0.9 1.7 0.00 0.00 0.00 74 1013.8
20260506032218 62 133 0.9 1.7 0.00 0.00 0.00 74 1013.4
20260506031714 63 134 0.9 1.7 0.00 0.00 0.00 73 1013.6
20260506031212 63 173 1.7 1.7 0.00 0.00 0.00 73 1013.5
20260506030710 63 222 1.7 1.7 0.00 0.00 0.00 73 1013.5
20260506030207 63 122 0.9 0.9 0.00 0.00 0.00 72 1013.5
20260506025704 64 236 1.7 2.6 0.00 0.00 0.00 72 1013.7
20260506025200 64 158 0.9 1.7 0.00 0.00 0.00 72 1013.6
20260506024658 64 154 0.9 2.6 0.00 0.00 0.00 71 1013.5
20260506024154 64 159 1.7 2.6 0.00 0.00 0.00 71 1013.5
20260506023650 64 233 2.6 2.6 0.00 0.00 0.00 71 1013.5
20260506023148 64 210 1.7 2.6 0.00 0.00 0.00 71 1013.6
20260506022644 65 208 1.7 1.7 0.00 0.00 0.00 70 1013.8
20260506022142 65 148 1.7 1.7 0.00 0.00 0.00 70 1013.5
20260506021640 65 151 0.9 1.7 0.00 0.00 0.00 70 1013.5
20260506021136 65 136 1.7 2.6 0.00 0.00 0.00 70 1013.5
20260506020634 65 119 1.7 4.3 0.00 0.00 0.00 70 1013.5
20260506020131 65 221 2.6 4.3 0.00 0.00 0.00 70 1013.3
20260506015629 65 206 2.6 5.2 0.00 0.00 0.00 70 1013.4
20260506015126 65 209 3.5 4.3 0.00 0.00 0.00 70 1013.4
20260506014623 65 128 0.9 1.7 0.00 0.00 0.00 70 1013.2
20260506014118 65 223 1.7 4.3 0.00 0.00 0.00 70 1013.2
20260506013617 65 214 2.6 4.3 0.00 0.00 0.00 70 1012.9
20260506013113 65 196 2.6 2.6 0.00 0.00 0.00 70 1013.0
20260506012610 65 246 3.5 6.1 0.00 0.00 0.00 70 1012.9
20260506012106 65 246 3.5 6.1 0.00 0.00 0.00 70 1013.2
20260506011604 65 213 3.5 4.3 0.00 0.00 0.00 71 1012.9
20260506011100 64 221 1.7 5.2 0.00 0.00 0.00 71 1012.9
20260506010559 65 204 2.6 4.3 0.00 0.00 0.00 71 1013.0
20260506010056 65 160 2.6 2.6 0.00 0.00 0.00 71 1012.9
20260506005553 65 230 1.7 5.2 0.00 0.00 0.00 71 1012.7
20260506005049 65 226 1.7 4.3 0.00 0.00 0.00 71 1012.7
20260506004546 65 150 2.6 4.3 0.00 0.00 0.00 71 1012.6
20260506004043 64 191 2.6 5.2 0.00 0.00 0.00 71 1012.8
20260506003539 64 208 2.6 2.6 0.00 0.00 0.00 71 1012.4
20260506003036 64 251 3.5 5.2 0.00 0.00 0.00 71 1012.6
20260506002532 64 230 3.5 5.2 0.00 0.00 0.00 71 1012.5
20260506002028 64 228 4.3 5.2 0.00 0.00 0.00 71 1012.4
20260506001524 65 143 0.9 1.7 0.00 0.00 0.00 70 1012.3
20260506001022 65 144 0.9 1.7 0.00 0.00 0.00 70 1012.3
20260506000519 65 168 0.9 1.7 0.00 0.00 0.00 70 1012.5
20260506000016 65 132 0.9 1.7 0.00 0.00 0.00 70 1012.3
20260505235514 66 125 0.9 2.6 0.00 0.00 0.00 69 1012.1
20260505235010 66 132 1.7 1.7 0.00 0.00 0.00 69 1012.0
20260505234508 66 161 0.9 1.7 0.00 0.00 0.00 69 1012.2
20260505234004 66 140 0.9 2.6 0.00 0.00 0.00 68 1012.0
20260505233502 66 152 0.9 2.6 0.00 0.00 0.00 68 1011.8
20260505232959 67 234 1.7 2.6 0.00 0.00 0.00 68 1011.7
20260505232457 67 122 0.0 1.7 0.00 0.00 0.00 67 1011.6
20260505231954 67 172 0.9 4.3 0.00 0.00 0.00 66 1011.6
20260505231451 68 161 1.7 2.6 0.00 0.00 0.00 66 1011.7
20260505230950 68 109 0.9 4.3 0.00 0.00 0.00 66 1011.2
20260505230447 68 119 0.9 4.3 0.00 0.00 0.00 65 1011.4
20260505225943 68 219 1.7 4.3 0.00 0.00 0.00 65 1011.2
20260505225440 68 139 2.6 2.6 0.00 0.00 0.00 65 1011.2
20260505224936 69 161 1.7 2.6 0.00 0.00 0.00 65 1011.5
20260505224433 69 229 2.6 7.0 0.00 0.00 0.00 64 1011.2
20260505223930 69 240 1.7 4.3 0.00 0.00 0.00 64 1011.2
20260505223427 69 209 2.6 4.3 0.00 0.00 0.00 63 1011.0
20260505222924 69 206 1.7 2.6 0.00 0.00 0.00 62 1011.0
20260505222420 70 138 0.9 4.3 0.00 0.00 0.00 62 1011.1
20260505221916 70 225 2.6 2.6 0.00 0.00 0.00 62 1011.4
20260505221414 70 110 1.7 6.1 0.00 0.00 0.00 61 1011.3
20260505220910 71 149 0.9 5.2 0.00 0.00 0.00 61 1011.2
20260505220407 71 184 2.6 5.2 0.00 0.00 0.00 60 1011.2
20260505215905 71 141 1.7 2.6 0.00 0.00 0.00 60 1011.0
20260505215403 72 166 0.0 1.7 0.00 0.00 0.00 60 1011.0
20260505214901 72 58 0.9 1.7 0.00 0.00 0.00 59 1010.8
20260505214358 72 110 0.9 1.7 0.00 0.00 0.00 59 1011.0
20260505213855 72 148 0.9 5.2 0.00 0.00 0.00 59 1011.1
20260505213353 72 249 2.6 5.2 0.00 0.00 0.00 59 1010.8
20260505212849 73 226 2.6 4.3 0.00 0.00 0.00 58 1010.7
20260505212346 73 168 1.7 4.3 0.00 0.00 0.00 57 1010.9
20260505211842 74 244 3.5 4.3 0.00 0.00 0.00 57 1010.7
20260505211340 73 134 2.6 6.1 0.00 0.00 0.00 57 1010.9
20260505210836 74 172 2.6 6.1 0.00 0.00 0.00 57 1010.8
20260505210333 73 167 2.6 7.0 0.00 0.00 0.00 57 1010.7
20260505205830 73 177 2.6 5.2 0.00 0.00 0.00 57 1010.7
20260505205328 74 268 2.6 4.3 0.00 0.00 0.00 57 1010.7
20260505204824 74 214 2.6 7.8 0.00 0.00 0.00 57 1010.8
20260505204322 74 196 5.2 8.7 0.00 0.00 0.00 56 1010.9
20260505203820 75 260 2.6 4.3 0.00 0.00 0.00 57 1010.9
20260505203316 74 132 0.9 2.6 0.00 0.00 0.00 57 1011.1
20260505202812 75 236 2.6 6.1 0.00 0.00 0.00 57 1010.7
20260505202309 75 120 1.7 4.3 0.00 0.00 0.00 57 1010.9
20260505201805 74 314 2.6 7.8 0.00 0.00 0.00 57 1010.8
20260505201303 75 178 2.6 4.3 0.00 0.00 0.00 57 1011.0
20260505200801 75 244 2.6 5.2 0.00 0.00 0.00 57 1010.9
20260505200258 75 237 1.7 9.6 0.00 0.00 0.00 57 1011.3
20260505195753 75 157 2.6 2.6 0.00 0.00 0.00 58 1011.3
20260505195251 75 273 4.3 7.0 0.00 0.00 0.00 57 1011.1
20260505194748 75 169 4.3 5.2 0.00 0.00 0.00 58 1011.6
20260505194244 75 252 4.3 7.0 0.00 0.00 0.00 57 1011.6
20260505193740 75 253 3.5 4.3 0.00 0.00 0.00 58 1011.8
20260505193238 75 179 4.3 6.1 0.00 0.00 0.00 57 1011.3
20260505192736 75 247 5.2 6.1 0.00 0.00 0.00 57 1011.8
20260505192233 75 186 2.6 7.0 0.00 0.00 0.00 57 1011.9
20260505191731 74 116 1.7 7.0 0.00 0.00 0.00 59 1011.7
20260505191230 75 243 4.3 7.0 0.00 0.00 0.00 57 1011.7
20260505190726 75 220 5.2 7.8 0.00 0.00 0.00 57 1011.8
20260505190225 75 275 4.3 5.2 0.00 0.00 0.00 56 1011.6
20260505185722 76 237 4.3 6.1 0.00 0.00 0.00 55 1012.0
20260505185219 76 203 6.1 7.8 0.00 0.00 0.00 55 1012.1
20260505184715 75 266 2.6 5.2 0.00 0.00 0.00 56 1012.1
20260505184212 76 233 3.5 6.1 0.00 0.00 0.00 54 1012.1
20260505183709 77 227 2.6 6.1 0.00 0.00 0.00 53 1012.1
20260505183207 76 209 3.5 8.7 0.00 0.00 0.00 53 1012.2
20260505182702 77 244 4.3 7.0 0.00 0.00 0.00 53 1012.1
20260505182200 77 235 3.5 7.0 0.00 0.00 0.00 52 1012.3
20260505181656 77 229 3.5 6.1 0.00 0.00 0.00 53 1012.0
20260505181154 77 210 2.6 7.8 0.00 0.00 0.00 52 1012.3
20260505180650 78 186 2.6 6.1 0.00 0.00 0.00 53 1012.3
20260505180147 79 213 6.1 7.8 0.00 0.00 0.00 50 1012.2
20260505175643 78 177 3.5 7.0 0.00 0.00 0.00 50 1012.2
20260505175139 79 139 0.9 5.2 0.00 0.00 0.00 49 1012.2
20260505174636 78 216 2.6 5.2 0.00 0.00 0.00 50 1012.2
20260505174132 79 219 2.6 2.6 0.00 0.00 0.00 50 1012.4
20260505173629 77 277 1.7 7.0 0.00 0.00 0.00 52 1012.6
20260505173126 78 159 3.5 7.0 0.00 0.00 0.00 51 1012.4
20260505172624 78 182 1.7 4.3 0.00 0.00 0.00 52 1012.5
20260505172120 78 243 3.5 4.3 0.00 0.00 0.00 52 1012.5
20260505171615 76 176 2.6 4.3 0.00 0.00 0.00 55 1012.5
20260505171112 77 156 3.5 4.3 0.00 0.00 0.00 53 1012.5
20260505170609 78 200 2.6 2.6 0.00 0.00 0.00 53 1012.7
20260505170105 77 209 1.7 4.3 0.00 0.00 0.00 54 1012.7
20260505165600 75 178 3.5 7.0 0.00 0.00 0.00 55 1012.8
20260505165056 76 204 5.2 7.8 0.00 0.00 0.00 54 1012.8
20260505164552 78 202 1.7 2.6 0.00 0.00 0.00 53 1012.7
20260505164050 78 75 3.5 5.2 0.00 0.00 0.00 53 1012.8
20260505163549 76 131 1.7 5.2 0.00 0.00 0.00 54 1012.9
20260505163045 77 114 0.9 6.1 0.00 0.00 0.00 52 1013.1
20260505162538 77 180 3.5 5.2 0.00 0.00 0.00 51 1013.2
20260505162035 78 8 1.7 2.6 0.00 0.00 0.00 51 1013.2
20260505161532 77 129 0.9 2.6 0.00 0.00 0.00 52 1013.2
20260505161029 76 260 2.6 7.0 0.00 0.00 0.00 52 1013.3
20260505160527 77 344 2.6 9.6 0.00 0.00 0.00 52 1013.4
20260505153003 75 328 2.6 7.8 0.00 0.00 0.00 53 1013.7
20260505152501 75 283 3.5 4.3 0.00 0.00 0.00 54 1013.8
20260505151956 74 187 2.6 2.6 0.00 0.00 0.00 55 1013.9
20260505151451 74 238 4.3 7.0 0.00 0.00 0.00 54 1013.7
20260505150949 74 274 1.7 4.3 0.00 0.00 0.00 55 1014.1
20260505150445 74 19 1.7 2.6 0.00 0.00 0.00 56 1014.1
20260505140416 70 116 0.9 2.6 0.00 0.00 0.00 65 1014.0
20260505124829 62 104 0.9 1.7 0.00 0.00 0.00 86 1013.9
20260505124326 61 212 1.7 2.6 0.00 0.00 0.00 87 1013.9
20260505123822 60 136 0.9 2.6 0.00 0.00 0.00 87 1014.1
20260505123319 59 180 1.7 1.7 0.00 0.00 0.00 88 1013.8
20260505122815 58 180 0.9 2.6 0.00 0.00 0.00 88 1013.8
20260505122312 57 131 0.9 2.6 0.00 0.00 0.00 89 1014.1
20260505121809 57 126 0.9 0.9 0.00 0.00 0.00 89 1013.7
20260505121306 56 125 0.0 0.9 0.00 0.00 0.00 89 1013.9
20260505120802 56 139 0.9 0.9 0.00 0.00 0.00 89 1013.8
20260505120258 56 141 0.9 1.7 0.00 0.00 0.00 89 1014.2
20260505115757 56 218 2.6 2.6 0.00 0.00 0.00 89 1014.2
20260505115254 55 91 0.9 0.9 0.00 0.00 0.00 90 1013.6
20260505114752 55 184 2.6 2.6 0.00 0.00 0.00 89 1013.9
20260505114248 56 65 1.7 4.3 0.00 0.00 0.00 89 1013.7
20260505113745 57 86 0.0 1.7 0.00 0.00 0.00 89 1014.4
20260505113241 56 4 1.7 1.7 0.00 0.00 0.00 89 1014.3
20260505112737 55 291 0.9 2.6 0.00 0.00 0.00 90 1014.2
20260505112235 55 91 0.0 0.0 0.00 0.00 0.00 90 1014.0
20260505111735 54 340 1.7 2.6 0.00 0.00 0.00 90 1014.3
20260505111231 53 91 0.0 2.6 0.00 0.00 0.00 91 1014.3
20260505110727 52 114 0.0 0.0 0.00 0.00 0.00 91 1014.3
20260505110225 51 116 0.9 0.9 0.00 0.00 0.00 91 1014.1